Home > Weather > Papeete > Past weeks

Flag for French Polynesia Weather for the Past 2 Weeks in Papeete, Tahiti, French Polynesia

Now
81 °F

Passing clouds.


Feels Like: 86 °F
Forecast: 79 / 90 °F
Wind: 2 mph from North

Location: Tahiti-Faaa

Current Time: Feb 11, 2016 at 3:52:25 AM

Latest Report: Feb 11, 2016 at 3:00 AM


Visibility: N/A

Pressure: 29.86 "Hg

Humidity: 84%

Dew point: 75 °F

Location of PapeeteLocation

Historic Weather in Papeete — Graph

°F

Papeete Temperature Yesterday

Maximum temperature yesterday: 91 °F (at 12:30 PM)
Minimum temperature yesterday: 79 °F (at 2:30 AM)
Average temperature yesterday: 84 °F

High & Low Weather Summary for the Past Weeks

 TemperatureHumidityPressure
High91 °F (Feb 3, 12:30 PM)94% (Jan 30, 11:00 PM)29.98 "Hg (Jan 30, 11:00 PM)
Low75 °F (Jan 27, 4:30 AM)55% (Jan 27, 1:00 PM)29.80 "Hg (Feb 4, 3:00 PM)
Average84 °F75%29.88 "Hg
* Reported Jan 27 2:00 AM — Feb 11 2:30 AM, Papeete, Weather by CustomWeather, © 2016

Note: Actual official high and low records may vary slightly from our data, if they occured in-between our weather recording intervals... More about our weather records

Advertising

Papeete Weather History for the Previous 24 Hours

 ConditionsComfort  
Time TempWeatherWind HumidityBarometerVisibility
2:30 AM
Thu, Feb 11
81 °FPassing clouds.3 mph84%29.86 "HgN/A
2:00 AM81 °FPassing clouds.3 mph84%29.86 "HgN/A
1:35 AM81 °FPassing clouds.3 mph84%29.86 "HgN/A
1:00 AM81 °FPassing clouds.3 mph84%29.86 "HgN/A
12:30 AM81 °FPassing clouds.3 mph84%29.89 "HgN/A
12:00 AM82 °FPassing clouds.2 mph79%29.89 "HgN/A
11:30 PM
Wed, Feb 10
82 °FPassing clouds.3 mph79%29.89 "HgN/A
11:00 PM82 °FPassing clouds.1 mph74%29.92 "HgN/A
10:30 PM82 °FPassing clouds.3 mph74%29.92 "HgN/A
10:00 PM82 °FPassing clouds.3 mph74%29.92 "HgN/A
9:30 PM84 °FPassing clouds.3 mph74%29.92 "HgN/A
9:00 PM84 °FPassing clouds.3 mph70%29.92 "HgN/A
8:30 PM84 °FPassing clouds.9 mph70%29.92 "HgN/A
8:00 PM84 °FPassing clouds.7 mph74%29.89 "HgN/A
7:30 PM86 °FPassing clouds.5 mph70%29.89 "HgN/A
7:00 PM86 °FPassing clouds.6 mph70%29.89 "HgN/A
6:30 PM86 °FPassing clouds.3 mph70%29.89 "HgN/A
6:00 PM88 °FPassing clouds.3 mph66%29.86 "HgN/A
5:30 PM88 °FPassing clouds.7 mph66%29.86 "HgN/A
5:00 PM90 °FPassing clouds.7 mph63%29.86 "HgN/A
4:00 PM90 °FPassing clouds.7 mph63%29.86 "HgN/A
3:30 PM90 °FPassing clouds.6 mph67%29.86 "HgN/A
3:00 PM91 °FPassing clouds.5 mph63%29.86 "HgN/A
2:00 PM91 °FPassing clouds.6 mph63%29.89 "HgN/A
1:30 PM90 °FPassing clouds.8 mph63%29.89 "HgN/A
1:00 PM90 °FPassing clouds.9 mph63%29.89 "HgN/A
12:30 PM91 °FPassing clouds.7 mph63%29.92 "HgN/A
12:00 PM90 °FPassing clouds.8 mph67%29.92 "HgN/A
11:00 AM90 °FPassing clouds.8 mph63%29.95 "HgN/A
10:30 AM88 °FPassing clouds.7 mph70%29.95 "HgN/A
10:00 AM88 °FPassing clouds.5 mph70%29.95 "HgN/A
9:30 AM88 °FPassing clouds.5 mph70%29.95 "HgN/A
9:00 AM86 °FPassing clouds.5 mph75%29.95 "HgN/A
8:30 AM86 °FPassing clouds.5 mph70%29.95 "HgN/A
8:00 AM84 °FPassing clouds.1 mph74%29.95 "HgN/A
7:30 AM84 °FPassing clouds.3 mph70%29.95 "HgN/A
7:00 AM82 °FPassing clouds.2 mph74%29.95 "HgN/A
6:30 AM79 °FPassing clouds.No wind84%29.92 "HgN/A
6:00 AM79 °FPassing clouds.2 mph84%29.92 "HgN/A
5:30 AM79 °FWarm.No wind84%29.92 "HgN/A
5:00 AM79 °FWarm.No wind84%29.89 "HgN/A
4:30 AM79 °FWarm.3 mph84%29.89 "HgN/A
4:00 AM79 °FWarm.2 mph84%29.89 "HgN/A
3:30 AM79 °FWarm.1 mph84%29.89 "HgN/A
3:00 AM79 °FPassing clouds.2 mph84%29.89 "HgN/A
Weather by CustomWeather, © 2016

See weather overviewHow to use our weather pages